Date String (YYYY-MM-DD hh:mm:ss) UTC,Instrument flags,absolute air pressure of the measurement (hPa),sample flow rate (lpm),inlet stack bypass flow (lpm),air temperature of the measurement (°C),ambient temperature measured by the external sensor (°C),aerosol sample conditioner tube jacket temperature (°C),OPC LED temperature (°C),internal box temperature (°C),relative humidity of the measurement (%),span deviation,mass concentration of particles derived from Lorenz-Mie calculation of OPC scattering (μg/m³),mass concentration of particles derived from Lorenz-Mie calculation of OPC scattering (μg/m³),mass concentration of particles derived from Lorenz-Mie calculation of OPC scattering (μg/m³)
DateTimeUTC,F1_M11,P_M11,Q1_M11,Q2_M11,T1_M11,T2_M11,T3_M11,T4_M11,T5_M11,U1_M11,ZSPAN_M11,X2_M11,X0_M11,X1_M11
2023-06-16 13:00:00,SystemResetWarning,0832.3,5.00,000.00,030.7,029.1,000.0,039.3,032.2,27.5,0000.0,0003.13,0006.06,0002.62
2023-06-16 13:01:00,SystemResetWarning,0832.3,5.00,000.00,030.7,029.1,000.0,039.3,032.2,27.3,0000.0,0003.11,0005.97,0002.61
2023-06-16 13:02:00,SystemResetWarning,0832.3,4.99,000.00,030.7,029.1,000.0,039.3,032.2,27.2,0000.0,0003.09,0005.93,0002.59
2023-06-16 13:03:00,SystemResetWarning,0832.3,5.00,000.00,030.7,029.1,000.0,039.3,032.2,27.2,0000.0,0003.10,0006.04,0002.58
2023-06-16 13:04:00,SystemResetWarning,0832.3,5.00,000.00,030.7,029.1,000.0,039.3,032.1,27.5,0000.0,0003.10,0006.77,0002.58
2023-06-16 13:05:00,SystemResetWarning,0832.4,5.01,000.00,030.7,029.1,000.0,039.3,032.2,27.3,0000.0,0003.10,0006.90,0002.58
2023-06-16 13:06:00,SystemResetWarning,0832.5,5.01,000.00,030.8,029.1,000.0,039.4,032.2,27.0,0000.0,0003.11,0006.89,0002.57
2023-06-16 13:07:00,SystemResetWarning,0832.5,5.01,000.00,030.8,029.1,000.0,039.4,032.2,27.0,0000.0,0003.11,0006.87,0002.56
2023-06-16 13:08:00,SystemResetWarning,0832.6,5.00,000.00,030.8,029.1,000.0,039.3,032.1,26.8,0000.0,0003.11,0006.89,0002.54
2023-06-16 13:09:00,SystemResetWarning,0832.5,5.00,000.00,030.8,029.2,000.0,039.3,032.1,26.5,0000.0,0003.07,0006.74,0002.52
2023-06-16 13:10:00,SystemResetWarning,0832.5,5.00,000.00,030.8,029.2,000.0,039.3,032.2,26.4,0000.0,0003.02,0006.64,0002.49
2023-06-16 13:11:00,SystemResetWarning,0832.6,5.00,000.00,030.8,029.2,000.0,039.4,032.2,26.6,0000.0,0002.97,0005.05,0002.46
2023-06-16 13:12:00,SystemResetWarning,0832.6,5.00,000.00,030.8,029.2,000.0,039.4,032.2,26.3,0000.0,0002.97,0005.04,0002.44
2023-06-16 13:13:00,SystemResetWarning,0832.5,5.00,000.00,030.8,029.2,000.0,039.4,032.2,26.4,0000.0,0002.96,0005.09,0002.42
2023-06-16 13:14:00,SystemResetWarning,0832.5,5.00,000.00,030.8,029.2,000.0,039.4,032.2,26.3,0000.0,0002.93,0005.11,0002.39
2023-06-16 13:15:00,SystemResetWarning,0832.5,5.00,000.00,030.8,029.2,000.0,039.4,032.2,26.4,0000.0,0002.90,0004.32,0002.37
2023-06-16 13:16:00,SystemResetWarning,0832.5,5.00,000.00,030.8,029.2,000.0,039.4,032.2,26.3,0000.0,0002.86,0004.58,0002.35
2023-06-16 13:17:00,SystemResetWarning,0832.5,4.99,000.00,030.8,029.0,000.0,039.4,032.3,26.2,0000.0,0002.83,0004.51,0002.35
2023-06-16 13:18:00,SystemResetWarning,0832.5,4.98,000.00,030.8,027.1,000.0,039.3,032.2,26.2,0000.0,0002.81,0004.54,0002.33
2023-06-16 13:19:00,SystemResetWarning,0832.5,5.01,000.00,030.8,025.0,000.0,039.2,032.0,26.4,0000.0,0002.80,0004.55,0002.33
2023-06-16 13:20:00,SystemResetWarning,0832.5,5.02,000.00,030.7,024.5,000.0,039.2,031.8,26.6,0000.0,0002.81,0004.63,0002.34
2023-06-16 13:21:00,SystemResetWarning,0832.5,5.00,000.00,030.5,024.8,000.0,039.1,031.3,26.9,0000.0,0002.83,0004.70,0002.34
2023-06-16 13:22:00,SystemResetWarning,0832.6,5.00,000.00,030.4,025.3,000.0,039.1,031.4,27.3,0000.0,0002.81,0004.58,0002.34
2023-06-16 13:23:00,SystemResetWarning,0832.6,5.00,000.00,030.3,025.8,000.0,039.1,031.4,27.3,0000.0,0002.81,0004.50,0002.37
2023-06-16 13:24:00,SystemResetWarning,0832.5,5.00,000.00,030.2,026.3,000.0,039.0,031.4,27.3,0000.0,0002.82,0004.53,0002.38
2023-06-16 13:25:00,SystemResetWarning,0832.5,5.00,000.00,030.2,026.7,000.0,039.0,031.4,27.4,0000.0,0002.80,0004.47,0002.40
2023-06-16 13:26:00,SystemResetWarning,0832.6,4.99,000.00,030.2,027.1,000.0,039.0,031.5,27.5,0000.0,0002.80,0004.49,0002.40
2023-06-16 13:27:00,SystemResetWarning,0832.5,4.99,000.00,030.2,027.3,000.0,038.9,031.5,27.9,0000.0,0002.83,0004.85,0002.42
2023-06-16 13:28:00,SystemResetWarning,0832.6,5.01,000.00,030.2,027.6,000.0,038.9,031.5,28.0,0000.0,0002.85,0005.10,0002.43
2023-06-16 13:29:00,SystemResetWarning,0832.6,5.01,000.00,030.2,027.8,000.0,038.9,031.5,28.0,0000.0,0002.84,0005.33,0002.44
2023-06-16 13:30:00,SystemResetWarning,0832.6,5.01,000.00,030.2,027.9,000.0,038.9,031.5,28.3,0000.0,0002.82,0005.29,0002.44
2023-06-16 13:31:00,SystemResetWarning,0832.7,5.00,000.00,030.2,028.0,000.0,038.9,031.6,28.6,0000.0,0002.80,0005.15,0002.44
2023-06-16 13:32:00,SystemResetWarning,0832.7,5.00,000.00,030.2,028.1,000.0,038.9,031.6,28.6,0000.0,0002.81,0005.24,0002.44
2023-06-16 13:33:00,SystemResetWarning,0832.6,5.00,000.00,030.2,028.2,000.0,038.8,031.6,28.3,0000.0,0002.85,0005.56,0002.45
2023-06-16 13:34:00,SystemResetWarning,0832.7,5.00,000.00,030.2,028.3,000.0,038.8,031.6,28.2,0000.0,0002.86,0005.97,0002.44
2023-06-16 13:35:00,SystemResetWarning,0832.7,5.00,000.00,030.2,028.4,000.0,038.8,031.6,28.3,0000.0,0002.86,0005.99,0002.44
2023-06-16 13:36:00,SystemResetWarning,0832.7,5.00,000.00,030.2,028.4,000.0,038.8,031.6,28.7,0000.0,0002.94,0006.27,0002.43
2023-06-16 13:37:00,SystemResetWarning,0832.7,5.00,000.00,030.2,028.5,000.0,038.8,031.6,29.0,0000.0,0002.92,0006.24,0002.43
2023-06-16 13:38:00,SystemResetWarning,0832.7,5.00,000.00,030.2,028.5,000.0,038.8,031.7,29.0,0000.0,0002.87,0005.46,0002.43
2023-06-16 13:39:00,SystemResetWarning,0832.7,4.99,000.00,030.2,028.6,000.0,038.8,031.7,28.6,0000.0,0002.87,0005.10,0002.43
2023-06-16 13:40:00,SystemResetWarning,0832.7,4.99,000.00,030.2,028.6,000.0,038.8,031.7,28.3,0000.0,0002.88,0004.89,0002.44
2023-06-16 13:41:00,SystemResetWarning,0832.9,4.99,000.00,030.3,028.6,000.0,038.8,031.7,28.4,0000.0,0002.91,0004.92,0002.45
2023-06-16 13:42:00,SystemResetWarning,0832.8,5.00,000.00,030.3,028.6,000.0,038.8,031.8,28.2,0000.0,0002.93,0004.95,0002.46
2023-06-16 13:43:00,SystemResetWarning,0832.7,5.00,000.00,030.3,028.7,000.0,038.8,031.8,28.1,0000.0,0002.97,0004.96,0002.50
2023-06-16 13:44:00,SystemResetWarning,0832.8,5.00,000.00,030.3,028.7,000.0,038.8,031.8,28.0,0000.0,0002.96,0004.77,0002.52
2023-06-16 13:45:00,SystemResetWarning,0832.8,5.01,000.00,030.3,028.7,000.0,038.9,031.8,27.8,0000.0,0002.97,0004.39,0002.53
2023-06-16 13:46:00,SystemResetWarning,0832.8,5.00,000.00,030.3,028.7,000.0,038.9,031.8,27.9,0000.0,0002.98,0004.35,0002.54
2023-06-16 13:47:00,SystemResetWarning,0832.8,5.01,000.00,030.3,028.7,000.0,038.9,031.8,28.1,0000.0,0002.96,0004.13,0002.56
2023-06-16 13:48:00,SystemResetWarning,0832.8,5.00,000.00,030.3,028.7,000.0,038.9,031.8,28.2,0000.0,0002.97,0004.10,0002.56
2023-06-16 13:49:00,SystemResetWarning,0832.9,4.99,000.00,030.4,028.8,000.0,038.9,031.9,28.2,0000.0,0003.01,0004.20,0002.56
2023-06-16 13:50:00,SystemResetWarning,0833.0,5.00,000.00,030.4,028.8,000.0,038.9,031.8,28.1,0000.0,0003.00,0004.22,0002.56
2023-06-16 13:51:00,SystemResetWarning,0832.9,5.00,000.00,030.4,028.8,000.0,038.9,031.9,28.0,0000.0,0003.02,0004.25,0002.57
2023-06-16 13:52:00,SystemResetWarning,0833.1,5.00,000.00,030.4,028.8,000.0,038.9,031.9,28.0,0000.0,0003.02,0004.51,0002.57
2023-06-16 13:53:00,SystemResetWarning,0833.4,4.99,000.00,030.4,028.8,000.0,038.9,031.9,27.9,0000.0,0003.07,0005.09,0002.57
2023-06-16 13:54:00,SystemResetWarning,0833.2,5.00,000.00,030.4,028.8,000.0,038.9,031.9,28.0,0000.0,0003.01,0004.95,0002.54
2023-06-16 13:55:00,SystemResetWarning,0833.1,5.00,000.00,030.4,028.8,000.0,039.0,031.9,27.9,0000.0,0003.02,0004.92,0002.54
2023-06-16 13:56:00,SystemResetWarning,0833.1,5.00,000.00,030.4,028.8,000.0,039.0,031.9,28.1,0000.0,0003.02,0004.94,0002.53
2023-06-16 13:57:00,SystemResetWarning,0833.4,5.00,000.00,030.4,028.8,000.0,039.0,031.9,28.4,0000.0,0003.02,0004.95,0002.53
2023-06-16 13:58:00,SystemResetWarning,0833.1,5.01,000.00,030.5,028.9,000.0,039.0,032.0,28.2,0000.0,0003.03,0005.05,0002.54
2023-06-16 13:59:00,SystemResetWarning,0833.1,5.00,000.00,030.5,028.9,000.0,039.0,032.0,28.1,0000.0,0003.08,0005.30,0002.56
